Time,TemperatureF,DewpointF,PressureIn,WindDirection,WindDirectionDegrees,WindSpeedMPH,WindSpeedGustMPH,Humidity,HourlyPrecipIn,Conditions,Clouds,dailyrainin,SoftwareType,DateUTC
2013-05-26 00:01:00,55.9,16.5,29.66,WNW,286,6.0,9.0,21,0.00,,,0.00,meteohub,2013-05-26 06:01:00,
2013-05-26 00:07:00,55.6,17.2,29.66,WNW,294,3.0,9.0,22,0.00,,,0.00,meteohub,2013-05-26 06:07:00,
2013-05-26 00:12:00,55.6,17.2,29.66,WNW,293,4.0,9.0,22,0.00,,,0.00,meteohub,2013-05-26 06:12:00,
2013-05-26 00:19:00,55.8,17.4,29.66,WNW,294,3.0,9.0,22,0.00,,,0.00,meteohub,2013-05-26 06:19:00,
2013-05-26 00:25:00,55.0,18.0,29.66,WNW,294,0.0,9.0,23,0.00,,,0.00,meteohub,2013-05-26 06:25:00,
2013-05-26 00:31:00,54.1,18.1,29.66,WNW,294,0.0,8.0,24,0.00,,,0.00,meteohub,2013-05-26 06:31:00,
2013-05-26 00:37:00,53.4,17.6,29.66,WNW,294,0.0,3.0,24,0.00,,,0.00,meteohub,2013-05-26 06:37:00,
2013-05-26 00:43:00,52.7,16.9,29.66,WNW,294,0.0,1.0,24,0.00,,,0.00,meteohub,2013-05-26 06:43:00,
2013-05-26 00:49:00,52.0,17.2,29.66,WNW,294,3.0,3.0,25,0.00,,,0.00,meteohub,2013-05-26 06:49:00,
2013-05-26 00:55:00,51.8,18.0,29.66,WNW,294,0.0,4.0,26,0.00,,,0.00,meteohub,2013-05-26 06:55:00,
2013-05-26 01:01:00,51.3,18.3,29.66,WNW,294,4.0,4.0,27,0.00,,,0.00,meteohub,2013-05-26 07:01:00,
2013-05-26 01:07:00,50.7,18.0,29.66,WNW,294,4.0,5.0,27,0.00,,,0.00,meteohub,2013-05-26 07:07:00,
2013-05-26 01:13:00,50.9,18.1,29.66,WNW,294,6.0,6.0,27,0.00,,,0.00,meteohub,2013-05-26 07:13:00,
2013-05-26 01:19:00,50.7,18.9,29.65,WNW,294,3.0,6.0,28,0.00,,,0.00,meteohub,2013-05-26 07:19:00,
2013-05-26 01:25:00,50.7,18.0,29.65,WNW,294,2.0,6.0,27,0.00,,,0.00,meteohub,2013-05-26 07:25:00,
2013-05-26 01:31:00,50.7,18.0,29.65,WNW,294,2.0,6.0,27,0.00,,,0.00,meteohub,2013-05-26 07:31:00,
2013-05-26 01:37:00,50.2,17.4,29.65,WNW,294,1.0,3.0,27,0.00,,,0.00,meteohub,2013-05-26 07:37:00,
2013-05-26 01:43:00,49.8,18.0,29.65,WNW,294,3.0,3.0,28,0.00,,,0.00,meteohub,2013-05-26 07:43:00,
2013-05-26 01:49:00,50.4,17.6,29.66,WNW,294,0.0,5.0,27,0.00,,,0.00,meteohub,2013-05-26 07:49:00,
2013-05-26 01:55:00,50.7,18.0,29.66,WNW,294,2.0,4.0,27,0.00,,,0.00,meteohub,2013-05-26 07:55:00,
2013-05-26 02:01:00,50.7,18.0,29.66,WNW,294,5.0,5.0,27,0.00,,,0.00,meteohub,2013-05-26 08:01:00,
2013-05-26 02:07:00,50.5,17.8,29.65,WNW,294,5.0,5.0,27,0.00,,,0.00,meteohub,2013-05-26 08:07:00,
2013-05-26 02:13:00,50.5,17.8,29.65,WNW,294,4.0,5.0,27,0.00,,,0.00,meteohub,2013-05-26 08:13:00,
2013-05-26 02:19:00,50.5,17.8,29.65,WNW,294,0.0,5.0,27,0.00,,,0.00,meteohub,2013-05-26 08:19:00,
2013-05-26 02:25:00,50.4,18.5,29.66,WNW,294,0.0,5.0,28,0.00,,,0.00,meteohub,2013-05-26 08:25:00,
2013-05-26 02:31:00,49.5,17.8,29.65,WNW,294,1.0,3.0,28,0.00,,,0.00,meteohub,2013-05-26 08:31:00,
2013-05-26 02:37:00,48.9,18.0,29.65,WNW,294,1.0,3.0,29,0.00,,,0.00,meteohub,2013-05-26 08:37:00,
2013-05-26 02:43:00,48.6,17.8,29.66,WNW,294,0.0,3.0,29,0.00,,,0.00,meteohub,2013-05-26 08:43:00,
2013-05-26 02:49:00,48.4,17.6,29.65,WNW,294,0.0,3.0,29,0.00,,,0.00,meteohub,2013-05-26 08:49:00,
2013-05-26 02:55:00,48.6,18.5,29.66,WNW,294,0.0,1.0,30,0.00,,,0.00,meteohub,2013-05-26 08:55:00,
2013-05-26 03:01:00,48.7,18.7,29.66,WNW,294,0.0,1.0,30,0.00,,,0.00,meteohub,2013-05-26 09:01:00,
2013-05-26 03:07:00,49.3,18.3,29.66,WNW,294,0.0,1.0,29,0.00,,,0.00,meteohub,2013-05-26 09:07:00,
2013-05-26 03:13:00,49.5,18.5,29.66,WNW,294,0.0,0.0,29,0.00,,,0.00,meteohub,2013-05-26 09:13:00,
2013-05-26 03:19:00,49.5,18.5,29.66,WNW,294,0.0,0.0,29,0.00,,,0.00,meteohub,2013-05-26 09:19:00,
2013-05-26 03:25:00,49.6,18.7,29.66,WNW,294,0.0,0.0,29,0.00,,,0.00,meteohub,2013-05-26 09:25:00,
2013-05-26 03:31:00,49.5,18.5,29.66,WNW,294,3.0,3.0,29,0.00,,,0.00,meteohub,2013-05-26 09:31:00,
2013-05-26 03:37:00,49.1,19.0,29.66,WNW,294,3.0,4.0,30,0.00,,,0.00,meteohub,2013-05-26 09:37:00,
2013-05-26 03:43:00,48.7,18.7,29.67,WNW,294,2.0,4.0,30,0.00,,,0.00,meteohub,2013-05-26 09:43:00,
2013-05-26 03:50:00,48.0,18.9,29.67,WNW,294,0.0,4.0,31,0.00,,,0.00,meteohub,2013-05-26 09:50:00,
2013-05-26 03:56:00,47.7,18.5,29.67,WNW,294,0.0,3.0,31,0.00,,,0.00,meteohub,2013-05-26 09:56:00,
2013-05-26 04:02:00,47.3,18.9,29.67,WNW,294,3.0,3.0,32,0.00,,,0.00,meteohub,2013-05-26 10:02:00,
2013-05-26 04:08:00,47.1,18.7,29.67,WNW,294,1.0,4.0,32,0.00,,,0.00,meteohub,2013-05-26 10:08:00,
2013-05-26 04:14:00,46.9,19.4,29.67,WNW,294,2.0,4.0,33,0.00,,,0.00,meteohub,2013-05-26 10:14:00,
2013-05-26 04:20:00,46.9,18.7,29.67,WNW,294,0.0,4.0,32,0.00,,,0.00,meteohub,2013-05-26 10:20:00,
2013-05-26 04:26:00,47.1,18.7,29.68,WNW,294,0.0,4.0,32,0.00,,,0.00,meteohub,2013-05-26 10:26:00,
2013-05-26 04:32:00,47.7,19.2,29.68,WNW,294,0.0,4.0,32,0.00,,,0.00,meteohub,2013-05-26 10:32:00,
2013-05-26 04:38:00,47.7,18.5,29.68,WNW,294,0.0,2.0,31,0.00,,,0.00,meteohub,2013-05-26 10:38:00,
2013-05-26 04:44:00,47.5,18.3,29.68,WNW,294,0.0,2.0,31,0.00,,,0.00,meteohub,2013-05-26 10:44:00,
2013-05-26 04:50:00,47.8,18.7,29.68,WNW,294,2.0,2.0,31,0.00,,,0.00,meteohub,2013-05-26 10:50:00,
2013-05-26 04:56:00,48.2,19.0,29.68,WNW,288,3.0,7.0,31,0.00,,,0.00,meteohub,2013-05-26 10:56:00,
2013-05-26 05:02:00,48.6,18.5,29.68,WNW,288,3.0,7.0,30,0.00,,,0.00,meteohub,2013-05-26 11:02:00,
2013-05-26 05:08:00,48.7,18.7,29.68,WNW,285,4.0,7.0,30,0.00,,,0.00,meteohub,2013-05-26 11:08:00,
2013-05-26 05:14:00,48.7,18.7,29.68,West,280,2.0,6.0,30,0.00,,,0.00,meteohub,2013-05-26 11:14:00,
2013-05-26 05:20:00,48.7,18.7,29.68,West,280,5.0,7.0,30,0.00,,,0.00,meteohub,2013-05-26 11:20:00,
2013-05-26 05:26:00,49.3,18.3,29.68,West,275,2.0,8.0,29,0.00,,,0.00,meteohub,2013-05-26 11:26:00,
2013-05-26 05:32:00,49.5,17.8,29.68,West,275,1.0,8.0,28,0.00,,,0.00,meteohub,2013-05-26 11:32:00,
2013-05-26 05:38:00,49.3,18.3,29.68,West,281,1.0,8.0,29,0.00,,,0.00,meteohub,2013-05-26 11:38:00,
2013-05-26 05:44:00,48.9,18.0,29.69,West,274,0.0,4.0,29,0.00,,,0.00,meteohub,2013-05-26 11:44:00,
2013-05-26 05:50:00,48.6,18.5,29.69,West,274,0.0,7.0,30,0.00,,,0.00,meteohub,2013-05-26 11:50:00,
2013-05-26 05:56:00,48.0,18.9,29.69,West,274,0.0,7.0,31,0.00,,,0.00,meteohub,2013-05-26 11:56:00,
2013-05-26 06:02:00,48.0,18.1,29.68,West,274,0.0,5.0,30,0.00,,,0.00,meteohub,2013-05-26 12:02:00,
2013-05-26 06:08:00,48.0,17.2,29.68,WNW,289,3.0,5.0,29,0.00,,,0.00,meteohub,2013-05-26 12:08:00,
2013-05-26 06:14:00,48.4,18.3,29.69,West,278,5.0,5.0,30,0.00,,,0.00,meteohub,2013-05-26 12:14:00,
2013-05-26 06:20:00,48.7,18.7,29.69,West,278,6.0,8.0,30,0.00,,,0.00,meteohub,2013-05-26 12:20:00,
2013-05-26 06:26:00,49.5,18.5,29.69,West,278,0.0,6.0,29,0.00,,,0.00,meteohub,2013-05-26 12:26:00,
2013-05-26 06:32:00,50.0,19.8,29.69,West,280,0.0,6.0,30,0.00,,,0.00,meteohub,2013-05-26 12:32:00,
2013-05-26 06:38:00,50.4,19.2,29.69,West,280,0.0,6.0,29,0.00,,,0.00,meteohub,2013-05-26 12:38:00,
2013-05-26 06:44:00,50.7,21.2,29.69,West,280,1.0,3.0,31,0.00,,,0.00,meteohub,2013-05-26 12:44:00,
2013-05-26 06:50:00,51.4,19.4,29.69,West,280,3.0,7.0,28,0.00,,,0.00,meteohub,2013-05-26 12:50:00,
2013-05-26 06:56:00,51.8,19.8,29.69,WNW,284,3.0,7.0,28,0.00,,,0.00,meteohub,2013-05-26 12:56:00,
2013-05-26 07:02:00,52.9,20.7,29.69,WSW,249,3.0,9.0,28,0.00,,,0.00,meteohub,2013-05-26 13:02:00,
2013-05-26 07:08:00,53.8,21.4,29.68,WSW,249,1.0,9.0,28,0.00,,,0.00,meteohub,2013-05-26 13:08:00,
2013-05-26 07:14:00,54.3,21.0,29.68,WSW,249,2.0,9.0,27,0.00,,,0.00,meteohub,2013-05-26 13:14:00,
2013-05-26 07:20:00,54.1,21.7,29.68,WSW,249,3.0,8.0,28,0.00,,,0.00,meteohub,2013-05-26 13:20:00,
2013-05-26 07:27:00,54.0,23.2,29.68,WSW,247,4.0,8.0,30,0.00,,,0.00,meteohub,2013-05-26 13:27:00,
2013-05-26 07:32:00,54.3,23.5,29.69,WSW,247,3.0,8.0,30,0.00,,,0.00,meteohub,2013-05-26 13:32:00,
2013-05-26 07:39:00,54.0,23.2,29.68,WSW,247,1.0,7.0,30,0.00,,,0.00,meteohub,2013-05-26 13:39:00,
2013-05-26 07:45:00,53.8,23.9,29.69,WSW,247,1.0,7.0,31,0.00,,,0.00,meteohub,2013-05-26 13:45:00,
2013-05-26 07:51:00,53.6,22.8,29.69,WSW,247,3.0,5.0,30,0.00,,,0.00,meteohub,2013-05-26 13:51:00,
2013-05-26 07:57:00,53.4,22.8,29.69,WSW,244,3.0,8.0,30,0.00,,,0.00,meteohub,2013-05-26 13:57:00,
2013-05-26 08:03:00,54.1,20.8,29.69,SSW,207,5.0,8.0,27,0.00,,,0.00,meteohub,2013-05-26 14:03:00,
2013-05-26 08:09:00,55.8,23.9,29.69,South,189,7.0,8.0,29,0.00,,,0.00,meteohub,2013-05-26 14:09:00,
2013-05-26 08:15:00,56.5,21.9,29.69,South,189,4.0,8.0,26,0.00,,,0.00,meteohub,2013-05-26 14:15:00,
2013-05-26 08:21:00,56.3,21.9,29.69,South,180,5.0,12.0,26,0.00,,,0.00,meteohub,2013-05-26 14:21:00,
2013-05-26 08:27:00,57.0,23.4,29.69,South,185,4.0,12.0,27,0.00,,,0.00,meteohub,2013-05-26 14:27:00,
2013-05-26 08:33:00,57.9,21.4,29.69,South,170,8.0,12.0,24,0.00,,,0.00,meteohub,2013-05-26 14:33:00,
2013-05-26 08:39:00,58.8,22.1,29.68,South,176,3.0,12.0,24,0.00,,,0.00,meteohub,2013-05-26 14:39:00,
2013-05-26 08:45:00,59.7,21.9,29.69,SSE,164,5.0,11.0,23,0.00,,,0.00,meteohub,2013-05-26 14:45:00,
2013-05-26 08:51:00,60.3,23.4,29.68,SSE,164,2.0,10.0,24,0.00,,,0.00,meteohub,2013-05-26 14:51:00,
2013-05-26 08:57:00,60.8,22.8,29.68,SE,143,4.0,10.0,23,0.00,,,0.00,meteohub,2013-05-26 14:57:00,
2013-05-26 09:03:00,61.2,24.1,29.68,South,169,2.0,10.0,24,0.00,,,0.00,meteohub,2013-05-26 15:03:00,
2013-05-26 09:09:00,61.9,23.7,29.68,South,170,3.0,6.0,23,0.00,,,0.00,meteohub,2013-05-26 15:09:00,
2013-05-26 09:15:00,62.4,24.1,29.68,South,169,4.0,7.0,23,0.00,,,0.00,meteohub,2013-05-26 15:15:00,
2013-05-26 09:21:00,63.1,23.7,29.67,SSE,168,5.0,8.0,22,0.00,,,0.00,meteohub,2013-05-26 15:21:00,
2013-05-26 09:27:00,63.5,22.8,29.67,SE,145,4.0,8.0,21,0.00,,,0.00,meteohub,2013-05-26 15:27:00,
2013-05-26 09:33:00,63.9,20.8,29.67,SE,145,1.0,8.0,19,0.00,,,0.00,meteohub,2013-05-26 15:33:00,
2013-05-26 09:39:00,64.2,22.3,29.66,SE,145,0.0,8.0,20,0.00,,,0.00,meteohub,2013-05-26 15:39:00,
2013-05-26 09:45:00,64.8,21.6,29.66,South,183,11.0,11.0,19,0.00,,,0.00,meteohub,2013-05-26 15:45:00,
2013-05-26 09:51:00,65.7,19.6,29.65,SSE,158,6.0,12.0,17,0.00,,,0.00,meteohub,2013-05-26 15:51:00,
2013-05-26 09:57:00,65.8,18.3,29.65,SSE,152,12.0,15.0,16,0.00,,,0.00,meteohub,2013-05-26 15:57:00,
2013-05-26 10:03:00,66.6,21.7,29.65,South,177,8.0,15.0,18,0.00,,,0.00,meteohub,2013-05-26 16:03:00,
2013-05-26 10:09:00,67.3,21.0,29.65,SSE,168,6.0,15.0,17,0.00,,,0.00,meteohub,2013-05-26 16:09:00,
2013-05-26 10:15:00,67.3,19.6,29.65,South,181,6.0,13.0,16,0.00,,,0.00,meteohub,2013-05-26 16:15:00,
2013-05-26 10:21:00,67.3,19.6,29.65,South,171,6.0,13.0,16,0.00,,,0.00,meteohub,2013-05-26 16:21:00,
2013-05-26 10:27:00,67.3,18.0,29.65,SSW,201,7.0,13.0,15,0.00,,,0.00,meteohub,2013-05-26 16:27:00,
2013-05-26 10:33:00,67.8,18.5,29.64,SSW,205,6.0,12.0,15,0.00,,,0.00,meteohub,2013-05-26 16:33:00,
2013-05-26 10:42:00,68.7,20.7,29.64,WSW,249,8.0,12.0,16,0.00,,,0.00,meteohub,2013-05-26 16:42:00,
2013-05-26 10:48:00,68.7,15.8,29.64,SW,230,10.0,14.0,13,0.00,,,0.00,meteohub,2013-05-26 16:48:00,
2013-05-26 10:54:00,68.9,19.4,29.64,SSW,199,9.0,14.0,15,0.00,,,0.00,meteohub,2013-05-26 16:54:00,
2013-05-26 11:00:00,69.1,21.0,29.64,South,191,9.0,13.0,16,0.00,,,0.00,meteohub,2013-05-26 17:00:00,
2013-05-26 11:06:00,69.3,21.2,29.64,South,179,8.0,14.0,16,0.00,,,0.00,meteohub,2013-05-26 17:06:00,
2013-05-26 11:12:00,69.4,19.8,29.64,South,191,7.0,14.0,15,0.00,,,0.00,meteohub,2013-05-26 17:12:00,
2013-05-26 11:19:00,69.3,21.2,29.63,South,179,9.0,15.0,16,0.00,,,0.00,meteohub,2013-05-26 17:19:00,
2013-05-26 11:25:00,69.6,19.9,29.63,SSE,148,11.0,18.0,15,0.00,,,0.00,meteohub,2013-05-26 17:25:00,
2013-05-26 11:31:00,70.7,22.3,29.62,SSE,168,10.0,17.0,16,0.00,,,0.00,meteohub,2013-05-26 17:31:00,
2013-05-26 11:37:00,71.1,19.4,29.62,SSE,161,11.0,17.0,14,0.00,,,0.00,meteohub,2013-05-26 17:37:00,
2013-05-26 11:43:00,70.9,19.2,29.62,South,179,15.0,16.0,14,0.00,,,0.00,meteohub,2013-05-26 17:43:00,
2013-05-26 11:49:00,70.7,19.2,29.62,South,186,12.0,16.0,14,0.00,,,0.00,meteohub,2013-05-26 17:49:00,
2013-05-26 11:55:00,71.1,17.8,29.62,South,185,10.0,16.0,13,0.00,,,0.00,meteohub,2013-05-26 17:55:00,
2013-05-26 12:01:00,71.2,21.2,29.62,South,191,12.0,19.0,15,0.00,,,0.00,meteohub,2013-05-26 18:01:00,
2013-05-26 12:07:00,71.8,18.3,29.62,South,171,10.0,19.0,13,0.00,,,0.00,meteohub,2013-05-26 18:07:00,
2013-05-26 12:13:00,71.4,18.0,29.62,SSE,161,9.0,21.0,13,0.00,,,0.00,meteohub,2013-05-26 18:13:00,
2013-05-26 12:19:00,71.8,18.3,29.62,SSE,167,14.0,21.0,13,0.00,,,0.00,meteohub,2013-05-26 18:19:00,
2013-05-26 12:25:00,71.8,18.3,29.61,SSE,168,9.0,21.0,13,0.00,,,0.00,meteohub,2013-05-26 18:25:00,
2013-05-26 12:31:00,72.1,16.7,29.61,South,178,19.0,19.0,12,0.00,,,0.00,meteohub,2013-05-26 18:31:00,
2013-05-26 12:37:00,72.0,18.5,29.61,South,191,8.0,22.0,13,0.00,,,0.00,meteohub,2013-05-26 18:37:00,
2013-05-26 12:43:00,72.7,20.7,29.61,South,188,10.0,22.0,14,0.00,,,0.00,meteohub,2013-05-26 18:43:00,
2013-05-26 12:49:00,73.0,15.4,29.60,SSE,149,12.0,22.0,11,0.00,,,0.00,meteohub,2013-05-26 18:49:00,
2013-05-26 12:55:00,72.7,12.9,29.60,SSW,210,9.0,16.0,10,0.00,,,0.00,meteohub,2013-05-26 18:55:00,
2013-05-26 13:01:00,72.5,15.1,29.60,ESE,105,9.0,18.0,11,0.00,,,0.00,meteohub,2013-05-26 19:01:00,
2013-05-26 13:07:00,73.2,17.6,29.60,SSW,197,12.0,18.0,12,0.00,,,0.00,meteohub,2013-05-26 19:07:00,
2013-05-26 13:13:00,73.8,13.8,29.60,SSW,203,7.0,16.0,10,0.00,,,0.00,meteohub,2013-05-26 19:13:00,
2013-05-26 13:19:00,73.4,17.8,29.59,SE,144,7.0,19.0,12,0.00,,,0.00,meteohub,2013-05-26 19:19:00,
2013-05-26 13:25:00,73.8,18.0,29.59,South,172,12.0,19.0,12,0.00,,,0.00,meteohub,2013-05-26 19:25:00,
2013-05-26 13:31:00,74.5,16.5,29.58,ESE,108,7.0,19.0,11,0.00,,,0.00,meteohub,2013-05-26 19:31:00,
2013-05-26 13:37:00,74.7,12.0,29.58,SSW,206,4.0,18.0,9,0.00,,,0.00,meteohub,2013-05-26 19:37:00,
2013-05-26 13:43:00,73.9,14.0,29.58,South,189,10.0,18.0,10,0.00,,,0.00,meteohub,2013-05-26 19:43:00,
2013-05-26 13:49:00,73.8,16.0,29.58,SSE,164,11.0,22.0,11,0.00,,,0.00,meteohub,2013-05-26 19:49:00,
2013-05-26 13:55:00,72.9,10.8,29.58,WSW,249,8.0,22.0,9,0.00,,,0.00,meteohub,2013-05-26 19:55:00,
2013-05-26 14:01:00,72.7,12.9,29.57,SSE,152,10.0,21.0,10,0.00,,,0.00,meteohub,2013-05-26 20:01:00,
2013-05-26 14:07:00,72.7,15.1,29.57,SSE,158,10.0,21.0,11,0.00,,,0.00,meteohub,2013-05-26 20:07:00,
2013-05-26 14:13:00,73.0,10.9,29.57,SE,146,11.0,21.0,9,0.00,,,0.00,meteohub,2013-05-26 20:13:00,
2013-05-26 14:19:00,73.0,10.9,29.57,SE,134,18.0,18.0,9,0.00,,,0.00,meteohub,2013-05-26 20:19:00,
2013-05-26 14:25:00,73.6,13.6,29.57,SSE,168,11.0,18.0,10,0.00,,,0.00,meteohub,2013-05-26 20:25:00,
2013-05-26 14:31:00,73.8,18.0,29.56,SE,133,10.0,18.0,12,0.00,,,0.00,meteohub,2013-05-26 20:31:00,
2013-05-26 14:37:00,73.8,16.0,29.56,SE,144,8.0,20.0,11,0.00,,,0.00,meteohub,2013-05-26 20:37:00,
2013-05-26 14:43:00,73.6,17.8,29.56,SE,132,9.0,20.0,12,0.00,,,0.00,meteohub,2013-05-26 20:43:00,
2013-05-26 14:49:00,74.1,14.0,29.56,SSE,153,5.0,17.0,10,0.00,,,0.00,meteohub,2013-05-26 20:49:00,
2013-05-26 14:55:00,74.5,16.5,29.55,SE,124,16.0,20.0,11,0.00,,,0.00,meteohub,2013-05-26 20:55:00,
2013-05-26 15:02:00,74.7,14.5,29.55,SSE,147,7.0,22.0,10,0.00,,,0.00,meteohub,2013-05-26 21:02:00,
2013-05-26 15:08:00,75.2,14.9,29.55,South,170,9.0,22.0,10,0.00,,,0.00,meteohub,2013-05-26 21:08:00,
2013-05-26 15:14:00,75.6,12.7,29.55,South,185,9.0,22.0,9,0.00,,,0.00,meteohub,2013-05-26 21:14:00,
2013-05-26 15:20:00,75.9,13.1,29.55,South,186,14.0,17.0,9,0.00,,,0.00,meteohub,2013-05-26 21:20:00,
2013-05-26 15:26:00,75.0,14.7,29.55,South,174,11.0,18.0,10,0.00,,,0.00,meteohub,2013-05-26 21:26:00,
2013-05-26 15:32:00,74.7,12.0,29.55,SE,144,7.0,18.0,9,0.00,,,0.00,meteohub,2013-05-26 21:32:00,
2013-05-26 15:38:00,73.8,13.8,29.54,SSE,167,7.0,18.0,10,0.00,,,0.00,meteohub,2013-05-26 21:38:00,
2013-05-26 15:44:00,73.0,10.9,29.53,SSW,193,7.0,16.0,9,0.00,,,0.00,meteohub,2013-05-26 21:44:00,
2013-05-26 15:50:00,73.2,13.3,29.53,SSE,159,8.0,18.0,10,0.00,,,0.00,meteohub,2013-05-26 21:50:00,
2013-05-26 15:56:00,74.7,14.5,29.53,South,178,15.0,18.0,10,0.00,,,0.00,meteohub,2013-05-26 21:56:00,
2013-05-26 16:02:00,74.8,14.5,29.53,South,184,9.0,19.0,10,0.00,,,0.00,meteohub,2013-05-26 22:02:00,
2013-05-26 16:08:00,74.8,9.5,29.53,SSE,159,8.0,19.0,8,0.00,,,0.00,meteohub,2013-05-26 22:08:00,
2013-05-26 16:14:00,74.7,12.0,29.52,SE,131,8.0,19.0,9,0.00,,,0.00,meteohub,2013-05-26 22:14:00,
2013-05-26 16:20:00,74.8,9.5,29.53,South,189,12.0,19.0,8,0.00,,,0.00,meteohub,2013-05-26 22:20:00,
2013-05-26 16:26:00,73.9,11.5,29.53,SW,235,7.0,19.0,9,0.00,,,0.00,meteohub,2013-05-26 22:26:00,
2013-05-26 16:32:00,73.9,5.9,29.52,WSW,247,9.0,19.0,7,0.00,,,0.00,meteohub,2013-05-26 22:32:00,
2013-05-26 16:38:00,74.5,9.3,29.52,South,185,14.0,18.0,8,0.00,,,0.00,meteohub,2013-05-26 22:38:00,
2013-05-26 16:44:00,74.1,6.1,29.52,WSW,256,5.0,18.0,7,0.00,,,0.00,meteohub,2013-05-26 22:44:00,
2013-05-26 16:50:00,74.7,9.5,29.52,SSW,213,6.0,18.0,8,0.00,,,0.00,meteohub,2013-05-26 22:50:00,
2013-05-26 16:56:00,75.2,6.8,29.52,SSW,201,7.0,15.0,7,0.00,,,0.00,meteohub,2013-05-26 22:56:00,
2013-05-26 17:02:00,75.4,10.0,29.52,SSW,207,7.0,15.0,8,0.00,,,0.00,meteohub,2013-05-26 23:02:00,
2013-05-26 17:08:00,74.8,6.6,29.52,South,169,1.0,15.0,7,0.00,,,0.00,meteohub,2013-05-26 23:08:00,
2013-05-26 17:14:00,74.7,9.5,29.52,South,187,3.0,14.0,8,0.00,,,0.00,meteohub,2013-05-26 23:14:00,
2013-05-26 17:20:00,75.6,12.7,29.52,WSW,250,7.0,15.0,9,0.00,,,0.00,meteohub,2013-05-26 23:20:00,
2013-05-26 17:26:00,75.6,15.1,29.52,West,277,7.0,15.0,10,0.00,,,0.00,meteohub,2013-05-26 23:26:00,
2013-05-26 17:32:00,75.4,15.1,29.51,WNW,285,6.0,15.0,10,0.00,,,0.00,meteohub,2013-05-26 23:32:00,
2013-05-26 17:38:00,75.4,15.1,29.51,WSW,239,11.0,14.0,10,0.00,,,0.00,meteohub,2013-05-26 23:38:00,
2013-05-26 17:44:00,74.7,14.5,29.51,West,261,8.0,17.0,10,0.00,,,0.00,meteohub,2013-05-26 23:44:00,
2013-05-26 17:50:00,74.1,16.2,29.51,WNW,291,11.0,20.0,11,0.00,,,0.00,meteohub,2013-05-26 23:50:00,
2013-05-26 17:56:00,73.9,14.0,29.51,WNW,290,11.0,20.0,10,0.00,,,0.00,meteohub,2013-05-26 23:56:00,
2013-05-26 18:02:00,73.9,16.2,29.51,WSW,247,8.0,20.0,11,0.00,,,0.00,meteohub,2013-05-27 00:02:00,
2013-05-26 18:08:00,73.6,13.6,29.51,WSW,254,9.0,20.0,10,0.00,,,0.00,meteohub,2013-05-27 00:08:00,
2013-05-26 18:14:00,73.4,15.6,29.51,WNW,294,7.0,20.0,11,0.00,,,0.00,meteohub,2013-05-27 00:14:00,
2013-05-26 18:20:00,72.9,15.3,29.51,WSW,251,12.0,19.0,11,0.00,,,0.00,meteohub,2013-05-27 00:20:00,
2013-05-26 18:26:00,73.0,17.4,29.52,West,260,10.0,21.0,12,0.00,,,0.00,meteohub,2013-05-27 00:26:00,
2013-05-26 18:32:00,72.7,17.1,29.51,SW,222,6.0,21.0,12,0.00,,,0.00,meteohub,2013-05-27 00:32:00,
2013-05-26 18:38:00,72.7,17.1,29.52,West,276,12.0,17.0,12,0.00,,,0.00,meteohub,2013-05-27 00:38:00,
2013-05-26 18:44:00,72.3,16.9,29.52,WSW,255,8.0,18.0,12,0.00,,,0.00,meteohub,2013-05-27 00:44:00,
2013-05-26 18:51:00,72.0,16.5,29.52,West,270,9.0,18.0,12,0.00,,,0.00,meteohub,2013-05-27 00:51:00,
2013-05-26 18:57:00,72.1,16.7,29.51,West,281,9.0,17.0,12,0.00,,,0.00,meteohub,2013-05-27 00:57:00,
2013-05-26 19:02:00,71.8,18.3,29.52,West,278,11.0,17.0,13,0.00,,,0.00,meteohub,2013-05-27 01:02:00,
2013-05-26 19:09:00,71.1,17.8,29.52,West,272,15.0,16.0,13,0.00,,,0.00,meteohub,2013-05-27 01:09:00,
2013-05-26 19:15:00,70.9,17.6,29.52,West,281,9.0,20.0,13,0.00,,,0.00,meteohub,2013-05-27 01:15:00,
2013-05-26 19:21:00,70.5,17.2,29.52,West,265,7.0,17.0,13,0.00,,,0.00,meteohub,2013-05-27 01:21:00,
2013-05-26 19:27:00,70.3,17.2,29.52,WSW,243,13.0,16.0,13,0.00,,,0.00,meteohub,2013-05-27 01:27:00,
2013-05-26 19:33:00,70.0,16.9,29.52,WSW,253,10.0,16.0,13,0.00,,,0.00,meteohub,2013-05-27 01:33:00,
2013-05-26 19:39:00,69.4,18.1,29.53,WSW,251,9.0,16.0,14,0.00,,,0.00,meteohub,2013-05-27 01:39:00,
2013-05-26 19:45:00,68.7,17.6,29.53,WSW,253,7.0,16.0,14,0.00,,,0.00,meteohub,2013-05-27 01:45:00,
2013-05-26 19:51:00,68.4,17.2,29.53,WSW,256,9.0,15.0,14,0.00,,,0.00,meteohub,2013-05-27 01:51:00,
2013-05-26 19:57:00,67.5,16.5,29.53,WSW,249,7.0,15.0,14,0.00,,,0.00,meteohub,2013-05-27 01:57:00,
2013-05-26 20:03:00,66.7,17.6,29.54,West,267,6.0,15.0,15,0.00,,,0.00,meteohub,2013-05-27 02:03:00,
2013-05-26 20:09:00,66.2,17.2,29.54,West,261,5.0,12.0,15,0.00,,,0.00,meteohub,2013-05-27 02:09:00,
2013-05-26 20:15:00,65.7,18.3,29.54,West,261,5.0,12.0,16,0.00,,,0.00,meteohub,2013-05-27 02:15:00,
2013-05-26 20:21:00,64.8,17.4,29.54,West,263,6.0,9.0,16,0.00,,,0.00,meteohub,2013-05-27 02:21:00,
2013-05-26 20:27:00,64.4,18.7,29.54,WSW,254,9.0,9.0,17,0.00,,,0.00,meteohub,2013-05-27 02:27:00,
2013-05-26 20:33:00,64.2,18.5,29.55,WSW,257,7.0,10.0,17,0.00,,,0.00,meteohub,2013-05-27 02:33:00,
2013-05-26 20:39:00,63.9,18.1,29.55,West,268,7.0,11.0,17,0.00,,,0.00,meteohub,2013-05-27 02:39:00,
2013-05-26 20:45:00,63.9,18.1,29.55,West,272,8.0,11.0,17,0.00,,,0.00,meteohub,2013-05-27 02:45:00,
2013-05-26 20:51:00,63.9,18.1,29.56,West,276,6.0,12.0,17,0.00,,,0.00,meteohub,2013-05-27 02:51:00,
2013-05-26 20:57:00,63.3,19.0,29.56,West,276,4.0,12.0,18,0.00,,,0.00,meteohub,2013-05-27 02:57:00,
2013-05-26 21:03:00,62.2,19.4,29.56,West,274,8.0,12.0,19,0.00,,,0.00,meteohub,2013-05-27 03:03:00,
2013-05-26 21:09:00,62.1,19.2,29.56,WNW,283,8.0,12.0,19,0.00,,,0.00,meteohub,2013-05-27 03:09:00,
2013-05-26 21:15:00,61.5,18.9,29.57,West,274,10.0,10.0,19,0.00,,,0.00,meteohub,2013-05-27 03:15:00,
2013-05-26 21:21:00,61.5,18.9,29.57,West,274,11.0,12.0,19,0.00,,,0.00,meteohub,2013-05-27 03:21:00,
2013-05-26 21:27:00,61.5,18.9,29.57,West,264,5.0,13.0,19,0.00,,,0.00,meteohub,2013-05-27 03:27:00,
2013-05-26 21:33:00,61.5,18.9,29.58,West,276,9.0,13.0,19,0.00,,,0.00,meteohub,2013-05-27 03:33:00,
2013-05-26 21:39:00,61.5,18.9,29.58,West,268,11.0,14.0,19,0.00,,,0.00,meteohub,2013-05-27 03:39:00,
2013-05-26 21:45:00,61.5,18.9,29.58,West,260,8.0,14.0,19,0.00,,,0.00,meteohub,2013-05-27 03:45:00,
2013-05-26 21:51:00,61.5,18.9,29.58,West,270,11.0,16.0,19,0.00,,,0.00,meteohub,2013-05-27 03:51:00,
2013-05-26 21:57:00,61.3,17.4,29.58,West,264,9.0,16.0,18,0.00,,,0.00,meteohub,2013-05-27 03:57:00,
2013-05-26 22:02:00,61.3,17.4,29.59,West,276,8.0,17.0,18,0.00,,,0.00,meteohub,2013-05-27 04:02:00,
2013-05-26 22:03:00,61.2,17.2,29.59,West,272,8.0,17.0,18,0.00,,,0.00,meteohub,2013-05-27 04:03:00,
2013-05-26 22:06:00,61.0,17.2,29.59,West,262,9.0,17.0,18,0.00,,,0.00,meteohub,2013-05-27 04:06:00,
2013-05-26 22:12:00,61.2,17.2,29.59,WSW,258,12.0,17.0,18,0.00,,,0.00,meteohub,2013-05-27 04:12:00,
2013-05-26 22:18:00,61.0,17.2,29.60,West,278,10.0,16.0,18,0.00,,,0.00,meteohub,2013-05-27 04:18:00,
2013-05-26 22:21:00,60.8,17.1,29.60,West,270,10.0,17.0,18,0.00,,,0.00,meteohub,2013-05-27 04:21:00,
2013-05-26 22:27:00,60.4,16.7,29.60,West,277,14.0,17.0,18,0.00,,,0.00,meteohub,2013-05-27 04:27:00,
2013-05-26 22:34:00,60.1,16.3,29.60,West,268,8.0,16.0,18,0.00,,,0.00,meteohub,2013-05-27 04:34:00,
2013-05-26 22:40:00,59.7,17.4,29.60,West,269,9.0,16.0,19,0.00,,,0.00,meteohub,2013-05-27 04:40:00,
2013-05-26 22:46:00,59.7,16.2,29.60,West,266,10.0,18.0,18,0.00,,,0.00,meteohub,2013-05-27 04:46:00,
2013-05-26 22:52:00,59.7,16.2,29.60,West,265,8.0,18.0,18,0.00,,,0.00,meteohub,2013-05-27 04:52:00,
2013-05-26 22:58:00,59.7,16.2,29.60,WNW,282,15.0,17.0,18,0.00,,,0.00,meteohub,2013-05-27 04:58:00,
2013-05-26 23:04:00,59.5,16.0,29.60,WSW,255,12.0,17.0,18,0.00,,,0.00,meteohub,2013-05-27 05:04:00,
2013-05-26 23:10:00,59.4,15.8,29.60,West,269,7.0,20.0,18,0.00,,,0.00,meteohub,2013-05-27 05:10:00,
2013-05-26 23:16:00,58.8,15.4,29.60,West,279,10.0,20.0,18,0.00,,,0.00,meteohub,2013-05-27 05:16:00,
2013-05-26 23:22:00,58.6,15.3,29.61,West,270,10.0,17.0,18,0.00,,,0.00,meteohub,2013-05-27 05:22:00,
2013-05-26 23:28:00,58.5,15.1,29.60,West,267,13.0,17.0,18,0.00,,,0.00,meteohub,2013-05-27 05:28:00,
2013-05-26 23:34:00,58.5,15.1,29.61,West,277,12.0,18.0,18,0.00,,,0.00,meteohub,2013-05-27 05:34:00,
2013-05-26 23:40:00,57.7,15.8,29.61,West,279,10.0,19.0,19,0.00,,,0.00,meteohub,2013-05-27 05:40:00,
2013-05-26 23:46:00,57.4,15.4,29.61,West,274,13.0,19.0,19,0.00,,,0.00,meteohub,2013-05-27 05:46:00,
2013-05-26 23:52:00,57.0,15.1,29.60,West,270,13.0,16.0,19,0.00,,,0.00,meteohub,2013-05-27 05:52:00,
2013-05-26 23:58:00,56.8,15.1,29.60,West,272,10.0,16.0,19,0.00,,,0.00,meteohub,2013-05-27 05:58:00,